Back to catalog

COSMOS 445

AliveMilitaryLEO
NORAD 5548·PAYLOAD·🇷🇺 Russia

Launched Oct 13, 1971 from Plesetsk Cosmodrome

Loading…

Next Passes (next 24 hours)

TLE

FreshSource: Space-Track

Epoch: Sep 14, 2026, 04:32 UTC

1 05548U 71086B   26257.18948981  .00000014  00000-0  17077-3 0  9994
2 05548  74.0294 168.0342 0102575 104.4607  47.5047 12.58230145522418

Track COSMOS 445 in real time with AllMySat

Download on the App Store